Location: Chiroubles
(46.1812°N, 4.6660°E)
Time: 16:36:41
(UTC+00:00)

Vanguard 2 Rocket - All Passes

Search period start: 04 December 2020 00:00
Search period end: 14 December 2020 00:00
Orbit: 553 x 3326 km, 32.9° (Epoch: 04 December)

Date Brightness Start Highest point End Pass type
(mag) Time Alt. Az. Time Alt. Az. Time Alt. Az.
04 Dec - 03:35:32 10° S 03:47:07 22° SE 04:00:18 10° E visible
04 Dec - 05:45:06 10° SW 06:01:58 44° SSE 06:19:28 10° E visible
04 Dec - 07:59:31 10° WSW 08:18:39 54° S 08:34:54 10° ESE daylight
04 Dec - 10:16:51 10° W 10:34:46 44° SSW 10:47:47 10° SE daylight
04 Dec - 12:37:15 10° W 12:48:18 21° SW 12:56:42 10° S daylight
05 Dec - 02:39:23 10° SSE 02:46:50 14° SE 02:55:10 10° ESE visible
05 Dec - 04:45:30 10° SSW 05:00:36 37° SSE 05:17:41 10° E visible
05 Dec - 06:58:24 10° WSW 07:16:49 53° S 07:34:20 10° ESE daylight
05 Dec - 09:14:38 10° W 09:33:33 50° SSW 09:48:21 10° SE daylight
05 Dec - 11:33:31 10° W 11:48:17 30° SW 11:59:09 10° SSE daylight
06 Dec - 03:46:42 10° SSW 03:59:39 29° SE 04:15:09 10° E visible
06 Dec - 05:57:54 10° SW 06:15:01 49° SSE 06:33:14 10° E visible
06 Dec - 08:12:53 10° WSW 08:31:56 53° S 08:48:22 10° ESE daylight
06 Dec - 10:30:34 10° W 10:47:43 38° SSW 11:00:38 10° SSE daylight
06 Dec - 12:53:08 10° WSW 13:00:43 15° SW 13:07:06 10° SSW daylight
07 Dec - 02:48:57 10° S 02:59:11 21° SE 03:11:35 10° E visible
07 Dec - 04:58:00 10° SW 05:13:28 43° SSE 05:31:35 10° E visible
07 Dec - 07:11:41 10° WSW 07:30:04 54° S 07:47:52 10° ESE daylight
07 Dec - 09:28:13 10° W 09:46:38 45° SSW 10:01:27 10° SE daylight
07 Dec - 11:48:02 10° W 12:00:50 23° SW 12:10:54 10° S daylight
08 Dec - 01:53:26 10° SSE 01:59:13 13° SE 02:05:46 10° ESE visible
08 Dec - 03:58:45 10° SSW 04:12:19 36° SSE 04:29:20 10° E visible
08 Dec - 06:11:01 10° WSW 06:28:11 53° S 06:46:50 10° ESE visible
08 Dec - 08:26:25 10° W 08:45:07 50° SSW 09:01:39 10° SE daylight
08 Dec - 10:44:35 10° W 11:00:27 31° SW 11:13:00 10° SSE daylight
09 Dec - 03:00:18 10° SSW 03:11:41 28° SE 03:26:24 10° E visible
09 Dec - 05:10:55 10° SW 05:26:30 49° SSE 05:45:16 10° E visible
09 Dec - 07:25:08 10° WSW 07:43:19 54° S 08:01:14 10° ESE daylight
09 Dec - 09:42:00 10° W 09:59:34 39° SSW 10:14:10 10° SSE daylight
09 Dec - 12:03:43 10° W 12:13:13 16° SW 12:21:20 10° SSW daylight
10 Dec - 02:02:55 10° S 02:11:33 20° SE 02:22:27 10° E visible
10 Dec - 04:11:24 10° SW 04:25:10 43° SSE 04:43:10 10° E visible
10 Dec - 06:24:23 10° WSW 06:41:25 54° S 07:00:17 10° ESE visible
10 Dec - 08:40:04 10° W 08:58:12 46° SSW 09:14:37 10° SE daylight
10 Dec - 10:59:07 10° W 11:13:00 24° SW 11:24:37 10° S daylight
11 Dec - 01:08:35 10° SE 01:11:54 11° SE 01:15:33 10° ESE visible
11 Dec - 03:12:30 10° SSW 03:24:20 35° SSE 03:40:32 10° E visible
11 Dec - 05:24:09 10° WSW 05:39:39 52° S 05:58:47 10° ESE visible
11 Dec - 07:38:43 10° W 07:56:31 50° SSW 08:14:24 10° SE daylight
11 Dec - 09:56:03 10° W 10:12:18 32° SW 10:26:22 10° SSE daylight
12 Dec - 02:14:22 10° S 02:24:03 26° SE 02:37:17 10° E visible
12 Dec - 04:24:26 10° SW 04:38:13 48° SSE 04:56:46 10° E visible
12 Dec - 06:37:54 10° WSW 06:54:41 53° S 07:13:34 10° ESE visible
12 Dec - 08:53:54 10° W 09:11:08 40° SSW 09:27:11 10° SSE daylight
12 Dec - 11:14:44 10° W 11:25:25 17° SW 11:34:55 10° SSW daylight
13 Dec - 01:17:24 10° SSE 01:24:17 17° SE 01:33:04 10° E visible
13 Dec - 03:25:16 10° SW 03:37:13 41° SSE 03:54:19 10° E visible
13 Dec - 05:37:35 10° WSW 05:52:54 53° S 06:12:09 10° ESE visible
13 Dec - 07:52:26 10° W 08:09:37 45° SSW 08:27:14 10° SE daylight
13 Dec - 10:10:39 10° W 10:24:54 25° SW 10:37:47 10° S daylight
